Hourly Data Report for September 12, 2017

All times are specified in Local Standard Time (LST). Add 1 hour to adjust for Daylight Saving Time where and when it is observed.

POINT LEPREAU CS
NEW BRUNSWICK

45°04'23.040" N
66°26'57.090" W
6.00 m
8104201
71699
WPE

Download Data

Hourly Data (September 2017)
Hourly Data Report for September 12, 2017
Temp Definition
°C
Dew Point Temp Definition
°C
Rel Hum Definition
%
Wind Dir Definition
10's deg

Wind Spd Definition
km/h
Visibility Definition
km
Stn Press Definition
kPa
Hmdx Definition


Wind Chill Definition


Weather Definition


TIME
00:00 13.5 11.3 87 2 9   101.44     LegendNANA
01:00 12.8 11.0 89 1 6   101.44     LegendNANA
02:00 12.2 10.5 90 35 6   101.38     LegendNANA
03:00 11.3 10.2 93 31 8   101.32     LegendNANA
04:00 10.6 9.8 95 33 7   101.27     LegendNANA
05:00 10.6 9.6 93 32 9   101.26     LegendNANA
06:00 11.0 9.7 91 32 10   101.26     LegendNANA
07:00 12.1 10.6 91 32 3   101.25     LegendNANA
08:00 14.3 11.4 83 15 2   101.22     LegendNANA
09:00 14.7 11.8 83 15 3   101.16     LegendNANA
10:00 17.8 13.1 74 23 7   101.14     LegendNANA
11:00 17.3 13.5 79 22 6   101.07     LegendNANA
12:00 18.7 13.8 73 21 10   100.98     LegendNANA
13:00 19.9 15.7 77 18 12   100.90     LegendNANA
14:00 18.5 14.9 79 17 12   100.79     LegendNANA
15:00 18.4 14.0 76 21 16   100.69     LegendNANA
16:00 19.4 14.5 73 23 10   100.65     LegendNANA
17:00 18.3 14.2 77 22 9   100.57     LegendNANA
18:00 17.3 13.0 76 28 4   100.53     LegendNANA
19:00 15.1 12.6 85 30 6   100.52     LegendNANA
20:00 13.6 12.4 93 30 6   100.55     LegendNANA
21:00 13.5 12.5 94 30 4   100.56     LegendNANA
22:00 14.1 12.8 92 32 5   100.57     LegendNANA
23:00 16.5 11.9 75 31 8   100.56     LegendNANA

Notes on Data Quality.

Legend

  • E = Estimated
  • M = Missing
  • NA = Not Available
  • ‡ = Partner data that is not subject to review by the National Climate Archives
Date modified: